Date String (YYYY-MM-DD hh:mm:ss) UTC,Instrument flags,Ambient pressure (hPa),Sample flow (lpm),Bypass flow (lpm),Sample temperature (°C),Ambient temperature (°C),ASC tube jacket temperature (°C),LED temperature (°C),Box temperature (°C),Sample RH (%),Span deviation,Mass concentration (μg/m³),Mass concentration (μg/m³),Mass concentration (μg/m³)
DateTimeUTC,F1_M11,P_M11,Q1_M11,Q2_M11,T1_M11,T2_M11,T3_M11,T4_M11,T5_M11,U1_M11,ZSPAN_M11,X0_M11,X2_M11,X1_M11
2022-04-15 06:00:00,,0818.5,5.00,0.00,21.9,21.1,00.0,31.0,23.6,07.3,0000.0,0007.87,0003.43,0002.06
2022-04-15 06:01:00,,0818.5,5.00,0.00,21.9,21.1,00.0,31.0,23.6,07.3,0000.0,0007.79,0003.40,0002.04
2022-04-15 06:02:00,,0818.5,5.00,0.00,21.9,21.1,00.0,31.0,23.6,07.3,0000.0,0007.79,0003.41,0002.03
2022-04-15 06:03:00,,0818.5,5.00,0.00,21.9,21.1,00.0,31.0,23.5,07.3,0000.0,0007.92,0003.45,0002.03
2022-04-15 06:04:00,,0818.5,4.99,0.00,21.8,21.1,00.0,31.0,23.6,07.3,0000.0,0008.36,0003.48,0002.01
2022-04-15 06:05:00,,0818.5,5.00,0.00,21.8,21.1,00.0,31.0,23.5,07.3,0000.0,0008.47,0003.49,0002.02
2022-04-15 06:06:00,,0818.5,5.00,0.00,21.8,21.1,00.0,30.9,23.5,07.3,0000.0,0008.44,0003.45,0001.99
2022-04-15 06:07:00,,0818.5,5.01,0.00,21.8,21.1,00.0,30.9,23.5,07.3,0000.0,0008.10,0003.37,0001.98
2022-04-15 06:08:00,,0818.4,5.00,0.00,21.8,21.1,00.0,30.9,23.5,07.2,0000.0,0007.71,0003.41,0001.97
2022-04-15 06:09:00,,0818.4,4.99,0.00,21.8,21.1,00.0,30.9,23.5,07.3,0000.0,0007.56,0003.38,0001.96
2022-04-15 06:10:00,,0818.4,5.00,0.00,21.8,21.1,00.0,30.9,23.5,07.3,0000.0,0007.62,0003.40,0001.93
2022-04-15 06:11:00,,0818.4,5.00,0.00,21.8,21.1,00.0,30.9,23.5,07.2,0000.0,0007.62,0003.40,0001.93
2022-04-15 06:12:00,,0818.4,5.00,0.00,21.8,21.0,00.0,30.9,23.5,07.2,0000.0,0007.75,0003.35,0001.91
2022-04-15 06:13:00,,0818.4,5.00,0.00,21.8,21.0,00.0,30.9,23.5,07.3,0000.0,0007.90,0003.32,0001.90
2022-04-15 06:14:00,,0818.4,5.01,0.00,21.8,21.0,00.0,30.9,23.5,07.3,0000.0,0007.96,0003.34,0001.89
2022-04-15 06:15:00,,0818.4,5.00,0.00,21.7,21.0,00.0,30.9,23.5,07.3,0000.0,0007.66,0003.34,0001.88
2022-04-15 06:16:00,,0818.4,5.01,0.00,21.7,21.0,00.0,30.8,23.4,07.3,0000.0,0007.52,0003.34,0001.89
2022-04-15 06:17:00,,0818.4,5.00,0.00,21.7,21.0,00.0,30.8,23.4,07.3,0000.0,0007.48,0003.33,0001.91
2022-04-15 06:18:00,,0818.4,5.00,0.00,21.7,21.0,00.0,30.8,23.4,07.3,0000.0,0007.58,0003.37,0001.93
2022-04-15 06:19:00,,0818.4,5.00,0.00,21.7,21.0,00.0,30.8,23.4,07.3,0000.0,0007.53,0003.32,0001.92
2022-04-15 06:20:00,,0818.4,5.00,0.00,21.7,21.0,00.0,30.8,23.4,07.3,0000.0,0007.38,0003.28,0001.93
2022-04-15 06:21:00,,0818.4,4.99,0.00,21.7,21.0,00.0,30.8,23.4,07.2,0000.0,0007.28,0003.26,0001.94
2022-04-15 06:22:00,,0818.4,4.99,0.00,21.7,21.0,00.0,30.8,23.4,07.3,0000.0,0008.08,0003.29,0001.95
2022-04-15 06:23:00,,0818.5,5.00,0.00,21.7,21.0,00.0,30.8,23.4,07.2,0000.0,0007.95,0003.32,0001.98
2022-04-15 06:24:00,,0818.4,5.00,0.00,21.7,21.0,00.0,30.8,23.5,07.2,0000.0,0007.71,0003.30,0001.98
2022-04-15 06:25:00,,0818.4,5.00,0.00,21.7,21.0,00.0,30.8,23.5,07.2,0000.0,0007.42,0003.24,0001.98
2022-04-15 06:26:00,,0818.4,5.00,0.00,21.7,21.0,00.0,30.8,23.5,07.2,0000.0,0007.27,0003.20,0001.98
2022-04-15 06:27:00,,0818.3,5.00,0.00,21.7,21.0,00.0,30.8,23.5,07.2,0000.0,0007.33,0003.19,0001.96
2022-04-15 06:28:00,,0818.4,5.01,0.00,21.7,21.0,00.0,30.8,23.5,07.1,0000.0,0007.41,0003.21,0001.94
2022-04-15 06:29:00,,0818.4,5.00,0.00,21.7,21.0,00.0,30.8,23.5,07.2,0000.0,0007.36,0003.17,0001.90
2022-04-15 06:30:00,,0818.4,5.00,0.00,21.7,21.0,00.0,30.8,23.5,07.2,0000.0,0007.32,0003.16,0001.89
2022-04-15 06:31:00,,0818.4,4.99,0.00,21.7,21.0,00.0,30.8,23.5,07.2,0000.0,0007.34,0003.15,0001.87
2022-04-15 06:32:00,,0818.4,5.00,0.00,21.7,21.0,00.0,30.8,23.4,07.3,0000.0,0007.34,0003.10,0001.86
2022-04-15 06:33:00,,0818.4,5.01,0.00,21.7,21.0,00.0,30.7,23.5,07.3,0000.0,0006.06,0003.02,0001.84
2022-04-15 06:34:00,,0818.3,5.00,0.00,21.7,21.0,00.0,30.7,23.4,07.3,0000.0,0005.94,0002.98,0001.82
2022-04-15 06:35:00,,0818.3,5.00,0.00,21.7,21.0,00.0,30.7,23.4,07.4,0000.0,0006.08,0003.01,0001.82
2022-04-15 06:36:00,,0818.3,5.00,0.00,21.7,21.1,00.0,30.7,23.5,07.3,0000.0,0006.09,0002.99,0001.83
2022-04-15 06:37:00,,0818.3,4.98,0.00,21.7,21.1,00.0,30.8,23.5,07.3,0000.0,0006.31,0003.06,0001.85
2022-04-15 06:38:00,,0818.4,5.00,0.00,21.8,21.1,00.0,30.8,23.6,07.4,0000.0,0006.50,0003.08,0001.86
2022-04-15 06:39:00,,0818.3,5.00,0.00,21.8,21.2,00.0,30.8,23.6,07.4,0000.0,0006.47,0003.03,0001.87
2022-04-15 06:40:00,,0818.2,5.01,0.00,21.8,21.2,00.0,30.8,23.7,07.3,0000.0,0006.64,0003.11,0001.90
2022-04-15 06:41:00,,0818.3,5.01,0.00,21.8,21.2,00.0,30.8,23.7,07.3,0000.0,0007.26,0003.13,0001.91
2022-04-15 06:42:00,,0818.4,5.00,0.00,21.8,21.2,00.0,30.8,23.7,07.3,0000.0,0007.42,0003.17,0001.94
2022-04-15 06:43:00,,0818.4,5.00,0.00,21.8,21.2,00.0,30.8,23.6,07.3,0000.0,0007.57,0003.26,0001.95
2022-04-15 06:44:00,,0818.4,5.00,0.00,21.8,21.2,00.0,30.8,23.6,07.4,0000.0,0007.40,0003.25,0001.95
2022-04-15 06:45:00,,0818.4,5.00,0.00,21.8,21.2,00.0,30.8,23.6,07.4,0000.0,0007.47,0003.28,0001.97
2022-04-15 06:46:00,,0818.4,5.00,0.00,21.8,21.1,00.0,30.8,23.6,07.4,0000.0,0007.60,0003.29,0001.98
2022-04-15 06:47:00,,0818.3,5.00,0.00,21.8,21.1,00.0,30.8,23.6,07.4,0000.0,0007.73,0003.32,0001.98
2022-04-15 06:48:00,,0818.3,5.00,0.00,21.8,21.1,00.0,30.8,23.5,07.4,0000.0,0007.69,0003.28,0001.95
2022-04-15 06:49:00,,0818.2,5.00,0.00,21.8,21.0,00.0,30.8,23.5,07.4,0000.0,0007.54,0003.25,0001.94
2022-04-15 06:50:00,,0818.2,5.00,0.00,21.8,21.0,00.0,30.8,23.5,07.5,0000.0,0007.66,0003.26,0001.94
2022-04-15 06:51:00,,0818.2,5.00,0.00,21.7,21.0,00.0,30.8,23.5,07.5,0000.0,0007.75,0003.28,0001.93
2022-04-15 06:52:00,,0818.2,5.00,0.00,21.7,21.0,00.0,30.8,23.5,07.5,0000.0,0007.49,0003.26,0001.92
2022-04-15 06:53:00,,0818.2,5.00,0.00,21.7,21.0,00.0,30.8,23.5,07.5,0000.0,0007.41,0003.27,0001.91
2022-04-15 06:54:00,,0818.2,5.00,0.00,21.7,20.9,00.0,30.8,23.4,07.5,0000.0,0007.24,0003.21,0001.89
2022-04-15 06:55:00,,0818.2,5.00,0.00,21.7,20.9,00.0,30.8,23.4,07.6,0000.0,0007.33,0003.21,0001.90
2022-04-15 06:56:00,,0818.2,5.00,0.00,21.7,20.9,00.0,30.7,23.4,07.6,0000.0,0007.64,0003.22,0001.91
2022-04-15 06:57:00,,0818.1,5.00,0.00,21.7,20.9,00.0,30.7,23.4,07.6,0000.0,0007.50,0003.22,0001.90
2022-04-15 06:58:00,,0818.1,5.00,0.00,21.6,20.9,00.0,30.7,23.4,07.5,0000.0,0007.58,0003.18,0001.89
2022-04-15 06:59:00,,0818.1,5.00,0.00,21.6,20.8,00.0,30.7,23.4,07.5,0000.0,0007.77,0003.19,0001.91
